San Antonio, Texas, United States (78266)
Lat: 29.42N, Lon: 98.49W
Wx Zone: TXZ206
Local Info
Past Weather Observations for Today

NOTE: This archive is for the closest National Weather Service station to San Antonio. Information may differ from the station used for current weather conditions.

Click here for Long-term Archive

Time Weather Temperature Dewpoint Humidity Pressure Winds Precip Visibility
12:58
Partly Cloudy
95°F / 35°C 64°F / 18°C 36% 29.98 in
(1015 mb)
SE 10.4 mph
(SE 17 kph)
- 10SM
12:53
Partly Cloudy
95°F / 35°C 64°F / 18°C 36% 29.98 in
(1015 mb)
SSE 12.7 mph
(SSE 20 kph)
- 10SM
11:58
Partly Cloudy
93°F / 34°C 68°F / 20°C 44% 30.01 in
(1016 mb)
SSE 10.4 mph
(SSE 17 kph)
- 10SM
10:58
Clear
90°F / 32°C 68°F / 20°C 49% 30.04 in
(1017 mb)
SSE 9.2 mph
(SSE 15 kph)
- 10SM
10:18
Partly Cloudy
88°F / 31°C 70°F / 21°C 55% 30.04 in
(1017 mb)
S 13.8 mph
(S 22 kph)
- 10SM
10:08
Mostly Cloudy
88°F / 31°C 70°F / 21°C 55% 30.04 in
(1017 mb)
S 11.5 mph
(S 19 kph)
- 10SM
09:58
Mostly Cloudy
88°F / 31°C 70°F / 21°C 55% 30.04 in
(1017 mb)
SW 8.1 mph
(SW 13 kph)
- 10SM
09:53
Mostly Cloudy
88°F / 31°C 70°F / 21°C 55% 30.04 in
(1017 mb)
SW 8.1 mph
(SW 13 kph)
- 10SM
08:58
Clear
81°F / 27°C 72°F / 22°C 74% 30.06 in
(1018 mb)
SSE 9.2 mph
(SSE 15 kph)
- 10SM
07:58
Partly Cloudy
81°F / 27°C 73°F / 23°C 79% 30.04 in
(1017 mb)
S 10.4 mph
(S 17 kph)
- 10SM
07:38
Partly Cloudy
79°F / 26°C 73°F / 23°C 84% 30.04 in
(1017 mb)
SSE 6.9 mph
(SSE 11 kph)
- 10SM
07:33
Mostly Cloudy
79°F / 26°C 73°F / 23°C 84% 30.04 in
(1017 mb)
SSE 9.2 mph
(SSE 15 kph)
- 10SM
07:18
Partly Cloudy
79°F / 26°C 73°F / 23°C 84% 30.04 in
(1017 mb)
S 4.6 mph
(S 7 kph)
- 10SM
07:08
Mostly Cloudy
77°F / 25°C 73°F / 23°C 89% 30.04 in
(1017 mb)
SSE 5.8 mph
(SSE 9 kph)
- 10SM
06:58
Mostly Cloudy
77°F / 25°C 73°F / 23°C 89% 30.04 in
(1017 mb)
S 4.6 mph
(S 7 kph)
- 10SM
06:38
Mostly Cloudy
77°F / 25°C 73°F / 23°C 89% 30.04 in
(1017 mb)
S 4.6 mph
(S 7 kph)
- 10SM
06:28
Mostly Cloudy
77°F / 25°C 73°F / 23°C 89% 30.04 in
(1017 mb)
S 5.8 mph
(S 9 kph)
- 10SM
05:58
Mostly Cloudy
77°F / 25°C 73°F / 23°C 89% 30.04 in
(1017 mb)
S 3.5 mph
(S 6 kph)
- 10SM
04:58
Overcast
77°F / 25°C 73°F / 23°C 89% 30.04 in
(1017 mb)
S 6.9 mph
(S 11 kph)
- 10SM
04:38
Mostly Cloudy
77°F / 25°C 73°F / 23°C 89% 30.01 in
(1016 mb)
SW 4.6 mph
(SW 7 kph)
- 10SM
04:28
Mostly Cloudy
77°F / 25°C 73°F / 23°C 89% 30.04 in
(1017 mb)
SSE 4.6 mph
(SSE 7 kph)
- 10SM
03:58
Overcast
77°F / 25°C 73°F / 23°C 89% 30.04 in
(1017 mb)
SW 5.8 mph
(SW 9 kph)
- 10SM
03:53
Overcast
77°F / 25°C 73°F / 23°C 89% 30.04 in
(1017 mb)
SW 6.9 mph
(SW 11 kph)
- 10SM
03:38
Mostly Cloudy
77°F / 25°C 73°F / 23°C 89% 30.04 in
(1017 mb)
SW 5.8 mph
(SW 9 kph)
- 10SM
03:33
Mostly Cloudy
77°F / 25°C 72°F / 22°C 83% 30.04 in
(1017 mb)
SW 5.8 mph
(SW 9 kph)
- 10SM
02:58
Clear
77°F / 25°C 73°F / 23°C 89% 30.04 in
(1017 mb)
S 6.9 mph
(S 11 kph)
- 10SM
02:38
Partly Cloudy
77°F / 25°C 73°F / 23°C 89% 30.04 in
(1017 mb)
S 5.8 mph
(S 9 kph)
- 10SM
02:33
Mostly Cloudy
77°F / 25°C 73°F / 23°C 89% 30.04 in
(1017 mb)
S 4.6 mph
(S 7 kph)
- 10SM
01:58
Overcast
77°F / 25°C 73°F / 23°C 89% 30.04 in
(1017 mb)
S 4.6 mph
(S 7 kph)
- 10SM
01:38
Mostly Cloudy
77°F / 25°C 73°F / 23°C 89% 30.04 in
(1017 mb)
S 4.6 mph
(S 7 kph)
- 10SM
01:08
Partly Cloudy
79°F / 26°C 73°F / 23°C 84% 30.04 in
(1017 mb)
S 8.1 mph
(S 13 kph)
- 10SM
00:58
Mostly Cloudy
79°F / 26°C 73°F / 23°C 84% 30.04 in
(1017 mb)
S 9.2 mph
(S 15 kph)
- 10SM
00:43
Mostly Cloudy
79°F / 26°C 73°F / 23°C 84% 30.04 in
(1017 mb)
S 9.2 mph
(S 15 kph)
- 10SM
Time Weather Temperature Dewpoint Humidity Pressure Winds Precip Visibility


Weather for websites

WeatherForYou.com, LLC is not responsible for any damages or problems caused by this service. Current weather conditions are obtained from the closest station including government and personal stations which may have varying degrees of accuracy. Weather forecasts are derived from the NOAA NDFD. Like all things, this site belongs to Jesus Christ... He just trusts me to maintain it. If you have any questions or comments email webmaster@weatherforyou.com

Copyright © 2014, WeatherForYou.com LLC. All rights reserved.